Regional Weather Roundup
Issued by NWS Lake Charles, LA

Home | Current Version | Previous Version | Text Only | Print | Product List | Glossary On
Versions: 1 2 3 4 5 6 7 8 9 10 11 12 13 14 15 16 17 18 19 20 21 22 23 24 25 26 27 28 29 30 31 32 33 34 35 36 37 38 39 40 41 42 43 44 45 46 47 48 49 50
000
ASUS44 KLCH 271610
RWRLCH
RWRLCH
REGIONAL WEATHER ROUNDUP
NATIONAL WEATHER SERVICE LAKE CHARLES LA
1000 AM CST THU NOV 27 2014

Note: "fair" indicates few or no clouds below 12,000 feet with no
significant weather and/or obstructions to visibility.


ACROSS SOUTHEAST TEXAS

CITY           SKY/WX    TMP DP  RH WIND       PRES   REMARKS
BEAUMONT       SUNNY     55  34  45 NE14      30.49R
BEAUMONT CITY    N/A     54  35  48 NE10      30.50S
ORANGE         SUNNY     55  32  42 N6        30.51R
JASPER         SUNNY     52  33  47 NE12      30.52S
$$

ACROSS CENTRAL LOUISIANA

CITY           SKY/WX    TMP DP  RH WIND       PRES   REMARKS
LEESVILLE      SUNNY     52  27  38 N13G18    30.49R
FULLERTON        N/A     55  27  34 VRB5G20   30.47R
ALEXANDRIA INT SUNNY     53  29  39 N14       30.49S
ESLER FIELD    SUNNY     52  29  41 N10G20    30.51R
DERIDDER         N/A     53  29  40 N10       30.52R
OAKDALE        SUNNY     54  32  42 N8        30.49S
OPELOUSAS        N/A     51  33  49 N15       30.49R
$$

ACROSS SOUTHWEST AND SOUTH CENTRAL LOUISIANA

CITY           SKY/WX    TMP DP  RH WIND       PRES   REMARKS
SULPHUR        SUNNY     56  31  38 N10G21    30.50R
LAKE CHARLES   SUNNY     56  29  35 NE17      30.48S
CHENNAULT INT  SUNNY     54  30  40 NE13      30.49S
CAMERON PHI    SUNNY     55  34  44 NE15G23   30.51R
DEQUINCY         N/A     53  32  45 N6        30.49S
JENNINGS         N/A     53  32  45 NE13      30.49R
LAFAYETTE      SUNNY     54  32  43 NE17G24   30.48R
NEW IBERIA     SUNNY     56  34  43 N13       30.48R
ABBEVILLE        N/A     55  32  42 N10G20    30.47S
PATTERSON      SUNNY     57  36  44 NE13        N/A
SALT POINT       N/A     61  35  37 N8G20     30.44S
$$

SELECTED SITES ACROSS THE REGION

CITY           SKY/WX    TMP DP  RH WIND       PRES   REMARKS
HOUSTON BUSH   SUNNY     56  32  40 NE9       30.51R
HOUSTON HOBBY  SUNNY     56  34  43 NE10      30.50R
GALVESTON      SUNNY     58  41  53 NE17      30.50R
COLLEGE STAT   SUNNY     53  30  41 NE10      30.52R
CONROE         SUNNY     54  30  40 E8        30.52R
HUNTSVILLE     SUNNY     53  32  44 NE5       30.52R
LUFKIN         SUNNY     55  28  35 NE8       30.52R
SHREVEPORT     SUNNY     50  28  42 N13       30.53S
MONROE         SUNNY     47  30  51 N10       30.56R
NATCHEZ MS     SUNNY     48  28  46 N14G20    30.51R
BATON ROUGE    SUNNY     53  31  42 N9        30.47S
N.O. INTL ARPT SUNNY     55  34  45 N18       30.45S
SLIDELL        SUNNY     54  32  43 NE14G22   30.44S
$$

MARINE REPORTS

STATION/POSITION TIME  TEMP    WIND        PRES    VSBY  WAVE
                       AIR SEA DIR/SP/G                  HT/PER
                 (UTC) (F)     (DEG/KT/KT) (MB)    (MI)  (FT/S)
BUOY 30 S HIGH I 1600   55 61   50/ 19/ 21 1031.9R         4/ 4
SEA RIM ST PARK  1600   53      30/ 15/ 17 1033.1R
PORT ARTHUR      1600      58   30/  4/  8 1032.6S
SABINE PASS N    1600   53 58   40/ 14/ 17 1032.4S
TEXAS POINT      NOT AVBL
CALCASIEU PASS   1600   53 57   40/ 15/ 19   N/A
LK CHARLES BEACH 1600   53 59              1032.3F
MARSH ISLAND     NOT AVBL
FRESH WATER LOCK 1600   54 58   10/ 12/ 17 1031.5R
AMERADA PASS     1600   54 55   20/ 10/ 15 1030.8R
$$



USA.gov is the U.S. government's official web portal to all federal, state and local government web resources and services.